This demonstration page uses our WeatherBlox Daily Observations layout. Learn more.

Left ArrowRight Arrow

34.16533, -84.80231

Hourly Observations for August 18, 2018

Temp ( °F °C ) Dew Point ( °F °C ) Humidity (%) Winds ( mph kmh ) Pressure ( in mb ) Visibility ( mi km ) Precip ( " mm )
12:53 am 00:53 Partly Cloudy 73 22.8 73 22.8 100 100 Calm 30.08 1019 10 16 0.00 0.00
1:15 am 01:15 Mostly Cloudy 74 23.3 73 22.8 97 97 Calm 30.09 1019 10 16 0.00 0.00
1:48 am 01:48 Partly Cloudy 75 24 73 23 94 94 Calm 30.06 1018 10 16 0.00 0.00
1:53 am 01:53 Mostly Clear 74 23.3 73 22.8 97 97 Calm 30.06 1018 10 16 0.00 0.00
2:53 am 02:53 Mostly Cloudy 74 23.3 73 22.8 97 97 Calm 30.06 1018 10 16 0.00 0.00
3:23 am 03:23 Mostly Cloudy 74 23.3 73 22.8 97 97 S 3 6 30.09 1019 10 16 0.00 0.00
3:49 am 03:49 Cloudy 73 23 73 23 100 100 Calm 30.06 1018 10 16 0.00 0.00
3:53 am 03:53 Mostly Cloudy 74 23.3 73 22.8 97 97 Calm 30.06 1018 10 16 0.00 0.00
4:20 am 04:20 Mostly Cloudy 74 23.3 72 22.2 94 94 Calm 30.06 1018 10 16 0.00 0.00
4:53 am 04:53 Cloudy 74 23.3 72 22.2 94 94 VRB 3 6 30.05 1018 10 16 0.00 0.00
5:16 am 05:16 Mostly Cloudy 74 23.3 72 22.2 94 94 VRB 3 6 30.06 1018 10 16 0.00 0.00
5:28 am 05:28 Cloudy 74 23.3 72 22.2 94 94 VRB 3 6 30.06 1018 10 16 0.00 0.00
5:53 am 05:53 Cloudy 74 23.3 72 22.2 94 94 VRB 3 6 30.05 1018 10 16 0.00 0.00
6:53 am 06:53 Cloudy 74 23.3 72 22.2 94 94 VRB 3 6 30.06 1018 10 16 0.00 0.00
7:53 am 07:53 Cloudy 74 23.3 72 22.2 94 94 S 3 6 30.06 1018 10 16 0.00 0.00
8:41 am 08:41 Cloudy 75 23.9 73 22.8 94 94 Calm 30.06 1018 10 16 0.00 0.00
8:50 am 08:50 Cloudy 75 24 73 23 94 94 S 3 6 30.06 1018 10 16 0.00 0.00
8:53 am 08:53 Cloudy 76 24.4 73 22.8 91 91 VRB 3 6 30.06 1018 10 16 0.00 0.00
9:53 am 09:53 Cloudy 77 25 73 22.8 88 88 Calm 30.05 1018 10 16 0.00 0.00
10:09 am 10:09 Cloudy 77 25 73 22.8 88 88 Calm 30.06 1018 10 16 0.00 0.00
10:27 am 10:27 Cloudy 77 25 73 22.8 88 88 VRB 6 9 30.06 1018 10 16 0.00 0.00
10:53 am 10:53 Cloudy 78 25.6 73 22.8 85 85 Calm 30.05 1018 10 16 0.00 0.00
11:05 am 11:05 Cloudy 79 26.1 73 22.8 82 82 VRB 3 6 30.03 1017 10 16 0.00 0.00
11:53 am 11:53 Cloudy 81 27.2 73 22.8 77 77 undefined N/A 30.03 1017 10 16 0.00 0.00
12:11 pm 12:11 Mostly Cloudy 83 28.3 73 22.8 72 72 VRB 5 7 30.00 1016 10 16 0.00 0.00
12:53 pm 12:53 Cloudy 82 27.8 72 22.2 72 72 Calm 30.01 1016 10 16 0.00 0.00
1:53 pm 13:53 Cloudy 83 28.3 72 22.2 70 70 VRB 3 6 29.99 1016 10 16 0.00 0.00
2:53 pm 14:53 Mostly Sunny 86 30 74 23.3 67 67 VRB 3 6 29.97 1015 10 16 0.00 0.00
3:30 pm 15:30 Cloudy 83 28.3 75 23.9 77 77 S 6 9 29.97 1015 10 16 0.00 0.00
3:53 pm 15:53 Mostly Cloudy 84 28.9 74 23.3 72 72 VRB 3 6 29.94 1014 10 16 0.00 0.00
4:53 pm 16:53 Mostly Sunny 85 29.4 72 22.2 65 65 VRB 6 9 29.93 1014 10 16 0.00 0.00
5:53 pm 17:53 Partly Cloudy 85 29.4 72 22.2 65 65 VRB 5 7 29.91 1013 10 16 0.00 0.00
6:53 pm 18:53 Cloudy 78 25.6 75 23.9 90 90 S 7 11 29.93 1014 10 16 0.00 0.00
7:49 pm 19:49 Cloudy with Heavy Rain 75 24 75 24 100 100 S 12 19 29.97 1015 1 1 0.16 4.06
7:53 pm 19:53 Cloudy with Light Rain 74 23.3 74 23.3 100 100 VRB 5 7 29.94 1014 1 1 0.16 4.06
7:57 pm 19:57 Mostly Cloudy with Light Rain 74 23.3 74 23.3 100 100 SSW 6 9 29.97 1015 2 3 0.01 0.25
8:04 pm 20:04 Cloudy 75 23.9 75 23.9 100 100 SSW 5 7 29.97 1015 10 16 0.01 0.25
8:53 pm 20:53 Cloudy 75 23.9 75 23.9 100 100 Calm 29.93 1014 8 13 0.04 1.02
9:53 pm 21:53 Mostly Cloudy 74 23.3 73 22.8 97 97 Calm 29.97 1015 10 16 0.00 0.00
10:53 pm 22:53 Mostly Cloudy 73 22.8 73 22.8 100 100 Calm 29.96 1015 9 14 0.04 1.02
11:53 pm 23:53 Mostly Cloudy 73 22.8 73 22.8 100 100 S 3 6 29.96 1014 10 16 0.01 0.25

Powered by AerisWeather